User: anonymous   Login
Location: S�tio Afonso Gruber
(26.1760°S, 49.5250°W)
Time: 11:17:18
(UTC+00:00)
Language:

Cosmos 1844 Rocket - Orbit

View from above orbital plane
View from above orbital plane
View from above satellite
View from above satellite

Ground track
Ground track

The orbit data is extracted from the following two-line orbital elements,

1 17974U 87041B   20226.84039747 +.00000004 +00000-0 +25473-4 0  9991
2 17974 071.0083 359.1589 0011898 068.6192 043.2158 14.17265905719930
Epoch (UTC): 13 August 2020 20:10:10
Eccentricity: 0.0011898
inclination: 71.0083°
perigee height: 826 km
apogee height: 843 km
right ascension of ascending node: 359.1589°
argument of perigee: 68.6192°
revolutions per day: 14.17265905
mean anomaly at epoch: 43.2158°
orbit number at epoch: 71993

The dashed part of the orbit path shows where the satellite is in the earth's shadow,  

DLR